TimeEDT,TemperatureF,Dew PointF,Humidity,Sea Level PressureIn,VisibilityMPH,Wind Direction,Wind SpeedMPH,Gust SpeedMPH,PrecipitationIn,Events,Conditions,WindDirDegrees,DateUTC
12:54 AM,71.1,70.0,96,29.97,0.5,SSW,3.5,-,N/A,Fog,Fog,210,2012-10-03 04:54:00
1:09 AM,71.6,71.6,100,29.97,0.2,Calm,Calm,-,N/A,Fog,Fog,0,2012-10-03 05:09:00
1:54 AM,71.1,71.1,100,29.98,0.2,Calm,Calm,-,N/A,Fog,Fog,0,2012-10-03 05:54:00
2:54 AM,72.0,71.1,97,29.99,0.5,Calm,Calm,-,N/A,Fog,Fog,0,2012-10-03 06:54:00
3:44 AM,71.6,71.6,100,29.99,1.0,Calm,Calm,-,N/A,,Overcast,0,2012-10-03 07:44:00
3:51 AM,71.6,69.8,94,29.99,0.5,Calm,Calm,-,N/A,Fog,Fog,0,2012-10-03 07:51:00
3:54 AM,72.0,70.0,93,29.99,0.5,Calm,Calm,-,N/A,Fog,Fog,0,2012-10-03 07:54:00
4:44 AM,71.6,71.6,100,30.00,0.2,Calm,Calm,-,N/A,Fog,Fog,0,2012-10-03 08:44:00
4:54 AM,72.0,71.1,97,30.01,0.2,Calm,Calm,-,N/A,Fog,Fog,0,2012-10-03 08:54:00
5:17 AM,71.6,71.6,100,30.01,0.5,Calm,Calm,-,N/A,Fog,Fog,0,2012-10-03 09:17:00
5:38 AM,71.6,71.6,100,30.01,1.0,Calm,Calm,-,N/A,,Mist,0,2012-10-03 09:38:00
5:45 AM,71.6,71.6,100,30.01,0.8,SSE,3.5,-,N/A,,Mist,160,2012-10-03 09:45:00
5:54 AM,72.0,71.1,97,30.02,0.5,Calm,Calm,-,N/A,Fog,Fog,0,2012-10-03 09:54:00
6:07 AM,71.6,71.6,100,30.02,0.2,Calm,Calm,-,N/A,Fog,Fog,0,2012-10-03 10:07:00
6:54 AM,72.0,71.1,97,30.02,0.5,SE,3.5,-,N/A,Fog,Fog,130,2012-10-03 10:54:00
7:08 AM,71.6,69.8,94,30.03,0.2,ESE,3.5,-,N/A,Fog,Fog,120,2012-10-03 11:08:00
7:54 AM,72.0,71.1,97,30.05,0.2,Calm,Calm,-,N/A,Fog,Fog,0,2012-10-03 11:54:00
8:35 AM,73.4,71.6,94,30.05,0.5,SSW,3.5,-,N/A,Fog,Fog,210,2012-10-03 12:35:00
8:46 AM,73.4,71.6,94,30.06,1.2,SSW,3.5,-,N/A,,Overcast,200,2012-10-03 12:46:00
8:54 AM,73.0,72.0,96,30.06,1.0,Calm,Calm,-,N/A,,Overcast,0,2012-10-03 12:54:00
8:56 AM,73.4,71.6,94,30.06,0.2,Calm,Calm,-,N/A,,Overcast,0,2012-10-03 12:56:00
9:54 AM,75.0,73.0,94,30.07,0.2,SSW,4.6,-,N/A,,Overcast,210,2012-10-03 13:54:00
10:01 AM,75.2,73.4,94,30.07,1.5,SSW,4.6,-,N/A,,Overcast,210,2012-10-03 14:01:00
10:15 AM,75.2,73.4,94,30.07,1.5,SW,4.6,-,N/A,,Overcast,220,2012-10-03 14:15:00
10:54 AM,77.0,73.9,90,30.07,1.5,SW,8.1,-,N/A,,Overcast,220,2012-10-03 14:54:00
11:03 AM,78.8,73.4,83,30.07,7.0,SW,3.5,-,N/A,,Overcast,220,2012-10-03 15:03:00
11:23 AM,80.6,73.4,79,30.07,8.0,WSW,8.1,-,N/A,,Mostly Cloudy,250,2012-10-03 15:23:00
11:33 AM,80.6,73.4,79,30.07,9.0,SW,8.1,-,N/A,,Mostly Cloudy,230,2012-10-03 15:33:00
11:54 AM,82.0,73.0,74,30.06,9.0,SW,8.1,-,N/A,,Mostly Cloudy,220,2012-10-03 15:54:00
12:12 PM,80.6,73.4,79,30.06,9.0,SW,6.9,-,N/A,,Scattered Clouds,220,2012-10-03 16:12:00
12:54 PM,82.9,72.0,69,30.06,10.0,SSW,8.1,-,N/A,,Partly Cloudy,210,2012-10-03 16:54:00
1:54 PM,84.0,69.1,61,30.05,10.0,SSW,6.9,-,N/A,,Mostly Cloudy,210,2012-10-03 17:54:00
2:54 PM,81.0,71.1,72,30.05,10.0,South,8.1,16.1,N/A,,Clear,170,2012-10-03 18:54:00
3:54 PM,81.0,70.0,69,30.06,10.0,SSW,8.1,-,N/A,,Clear,200,2012-10-03 19:54:00
4:54 PM,81.0,66.0,60,30.06,10.0,WSW,9.2,-,N/A,,Clear,240,2012-10-03 20:54:00
5:54 PM,80.1,64.9,60,30.07,10.0,WSW,5.8,-,N/A,,Clear,240,2012-10-03 21:54:00
6:54 PM,77.0,66.9,71,30.09,10.0,SW,4.6,-,N/A,,Clear,220,2012-10-03 22:54:00
7:54 PM,75.9,66.9,74,30.10,10.0,SW,4.6,-,N/A,,Clear,230,2012-10-03 23:54:00
8:54 PM,75.0,66.9,76,30.12,10.0,WSW,4.6,-,N/A,,Clear,250,2012-10-04 00:54:00
9:54 PM,73.9,66.9,79,30.13,10.0,West,3.5,-,N/A,,Clear,280,2012-10-04 01:54:00
10:54 PM,73.0,66.9,81,30.13,10.0,Calm,Calm,-,N/A,,Clear,0,2012-10-04 02:54:00
11:54 PM,72.0,66.9,84,30.14,10.0,Calm,Calm,-,N/A,,Partly Cloudy,0,2012-10-04 03:54:00